Vertical_Velocity
-1 -1 1 -5 -3 -1 -8 -3 5 1 -2 -7 -5 2 6 0 3 -0 1 0 2 1 15 -10 18 -0 -2 -1 -4 4 8 8
-9 -1 -3 -4 -2 2 -5 -1 8 0 -3 -4 -7 7 2 2 0 0 1 4 0 0 70 -3 24 18 -6 3 3 3 0 -1
0 -0 -0 -4 -1 0 -4 2 7 3 4 1 -6 8 0 2 -1 0 1 3 6 13 5 23 5 -1 15 -1 2 -4 0 3
-2 -7 -1 -4 3 1 -6 4 1 2 3 -2 -3 2 2 -4 4 0 0 -3 5 3 16 -8 17 10 -2 -6 -3 -1 -0 -0
-2 -3 -1 -3 3 5 -0 4 -2 2 3 -8 -1 6 1 -3 0 -1 -3 -2 -1 -8 4 -6 21 -2 1 -5 3 3 2 2
-7 -2 -6 3 -0 10 1 -2 0 3 -3 -6 -8 5 -1 -3 -2 0 -2 -3 -7 4 -10 -6 15 0 3 1 -2 -4 4 5
-3 -2 -6 0 -2 6 6 0 2 2 0 3 -8 2 -2 -3 -3 1 0 3 -0 -1 6 1 -13 -2 1 3 1 0 1 4
-9 -7 -1 -2 2 4 5 4 -2 1 3 -1 4 2 -1 -2 -4 0 0 2 0 -1 -6 -9 2 9 5 0 1 0 -0 -2
-4 -3 -8 -6 -1 -3 9 3 0 -2 5 10 10 4 1 -1 -1 0 2 -1 1 1 -1 -2 -5 -13 -10 -3 -2 3 2 0
-5 -5 -4 -5 -1 -3 5 4 1 1 0 -8 1 1 4 1 1 -1 2 2 3 4 5 1 1 -2 -7 -8 -3 -0 0 2
-1 0 -5 -2 -9 2 -2 6 -1 4 7 -4 -2 -2 0 -1 -0 1 0 4 4 2 2 7 4 6 1 -1 -2 4 1 -1
-3 -3 -4 -6 -8 -3 1 0 -2 8 5 -5 -5 -3 -1 -3 1 0 -0 -0 3 5 5 15 5 -1 15 9 -2 2 2 -0
-5 -3 -3 -3 -4 -2 2 0 -4 9 9 -2 -3 -4 -3 -2 -1 -1 -2 -1 0 1 2 0 34 24 -4 22 -4 -0 -0 2
-5 3 -2 -4 -2 0 -1 1 -1 10 5 2 -2 -2 -2 -1 -3 -2 -2 -2 1 -1 0 5 13 5 -1 13 31 0 2 21
-8 -5 -2 -11 1 0 1 3 0 11 9 6 1 -0 3 -2 -4 -1 -1 -0 -1 1 -2 2 -4 -7 21 -4 -2 15 28 16
-7 0 -6 -18 7 10 -1 -0 3 9 5 5 1 1 2 -3 -4 -0 -2 -1 -0 2 -1 1 2 5 8 -5 -1 2 43 8
-1 4 -18 1 2 9 6 7 5 9 5 3 4 2 1 -2 -2 0 -1 -3 -3 -2 2 -1 -1 1 -2 -1 2 18 -5 -3
-0 -8 -15 -16 -5 8 10 5 5 -4 1 3 1 -0 -1 -2 -2 -2 -0 -1 -3 -2 -1 3 1 -3 -5 -2 8 13 1 7
-3 -2 -10 -4 -5 6 5 8 11 -1 2 -0 3 1 -1 -1 -3 1 -2 0 -1 -1 -4 -4 -1 -2 -3 -2 4 9 0 -3
Height
3060 3059 3058 3058 3058 3059 3063 3064 3066 3068 3071 3073 3073 3074 3075 3073 3070 3069 3068 3067 3069 3070 3071 3074 3082 3088 3096 3102 3110 3118 3125 3129
3051 3051 3050 3048 3049 3050 3055 3057 3060 3062 3064 3066 3067 3068 3068 3066 3063 3062 3060 3060 3060 3061 3060 3068 3074 3081 3090 3096 3104 3113 3117 3123
3044 3043 3042 3041 3041 3043 3047 3049 3053 3056 3058 3060 3062 3063 3062 3060 3057 3055 3054 3053 3051 3050 3051 3058 3067 3075 3081 3090 3100 3106 3112 3118
3036 3036 3035 3035 3035 3036 3040 3042 3046 3049 3051 3054 3055 3056 3057 3055 3052 3049 3048 3047 3043 3042 3046 3053 3060 3068 3076 3086 3093 3099 3108 3113
3029 3029 3029 3028 3029 3031 3034 3036 3039 3042 3045 3048 3050 3051 3050 3049 3046 3044 3043 3043 3040 3037 3042 3048 3056 3065 3072 3080 3089 3097 3105 3110
3024 3023 3022 3023 3024 3024 3027 3030 3033 3035 3039 3042 3045 3045 3045 3043 3041 3040 3039 3039 3037 3040 3041 3047 3052 3060 3068 3077 3084 3090 3099 3105
3019 3018 3017 3017 3019 3019 3021 3024 3027 3028 3032 3036 3039 3040 3040 3038 3037 3036 3036 3037 3037 3038 3041 3044 3050 3057 3065 3073 3082 3088 3095 3101
3014 3013 3012 3011 3013 3015 3016 3018 3020 3023 3025 3029 3033 3034 3035 3033 3032 3032 3034 3034 3036 3039 3041 3044 3047 3052 3062 3070 3077 3083 3089 3096
3012 3010 3008 3007 3007 3008 3011 3013 3014 3017 3020 3023 3026 3029 3030 3028 3027 3028 3029 3031 3034 3037 3040 3043 3046 3051 3056 3065 3071 3078 3083 3089
3007 3005 3002 3001 3001 3001 3002 3006 3007 3011 3013 3019 3021 3022 3025 3024 3023 3023 3026 3028 3030 3034 3037 3041 3045 3049 3052 3058 3065 3072 3077 3082
3001 2998 2995 2994 2993 2993 2994 2997 3002 3005 3008 3013 3016 3017 3019 3019 3019 3019 3021 3023 3026 3029 3033 3036 3038 3043 3048 3054 3059 3066 3071 3075
2994 2991 2988 2986 2985 2985 2986 2990 2993 2997 3001 3006 3010 3012 3014 3014 3014 3016 3017 3020 3021 3023 3026 3029 3029 3033 3039 3046 3051 3057 3062 3067
2988 2985 2982 2979 2978 2976 2978 2981 2985 2990 2994 3000 3005 3007 3009 3010 3010 3012 3013 3015 3017 3020 3021 3022 3021 3022 3030 3036 3041 3048 3053 3057
2982 2979 2974 2972 2971 2969 2970 2972 2976 2982 2986 2993 3000 3002 3004 3006 3006 3008 3010 3011 3012 3015 3015 3014 3013 3015 3020 3027 3033 3040 3044 3050
2976 2972 2969 2966 2963 2962 2962 2965 2968 2974 2981 2986 2994 2998 3001 3001 3002 3004 3006 3008 3009 3011 3011 3010 3009 3010 3015 3021 3025 3030 3036 3042
2973 2970 2964 2961 2957 2956 2958 2959 2964 2970 2976 2980 2988 2993 2996 2997 3000 3001 3004 3005 3006 3008 3009 3009 3009 3010 3014 3018 3021 3026 3031 3037
2970 2966 2961 2955 2952 2950 2953 2954 2958 2965 2970 2974 2984 2988 2991 2993 2996 2998 3001 3004 3005 3006 3007 3008 3009 3011 3012 3017 3018 3024 3028 3034
2965 2963 2958 2954 2948 2946 2947 2950 2952 2960 2965 2970 2978 2983 2987 2990 2993 2995 2998 3002 3004 3006 3007 3008 3009 3011 3013 3016 3019 3025 3030 3033
2960 2959 2956 2951 2947 2942 2940 2944 2948 2954 2959 2966 2973 2978 2982 2986 2989 2992 2995 2998 3001 3004 3006 3008 3010 3012 3015 3017 3021 3023 3027 3032